Location: ?ern� Novina
(50.6762°N, 14.8696°E)
Time: 02:58:04
(UTC+00:00)

USA 281 - Pass Details

Date: 03 March 2021
Orbit: 1076 x 1083 km, 106.0° (Epoch: 12 April)

Event Time Altitude Azimuth Distance (km) Brightness Sun altitude
Exits shadow 21:34:27 36° 325° (NW) 1,651 4.5 -41.3°
Drops below altitude 10° 21:38:04 10° 331° (NNW) 2,927 6.1 -41.6°
Sets 21:40:36 0° 333° (NNW) 3,888 7.0 -41.8°
